#timestamp,LO_Frequency,Hit,StdDev 
1618012815.6,286047000.2,N
1618012835.4,286047002.3,N
1618012855.2,286047002.8,N
1618012875.1,286046999.7,N
1618012876.0,286046999.7,N
1618012895.8,286046999.7,N
1618012915.7,286046999.7,N
1618012935.5,286047000.3,N
1618012955.3,286047000.6,N
1618012975.2,286046999.7,N
1618012995.0,286046999.7,N
1618012995.9,286046999.7,N
1618013015.7,286047000.1,N
1618013035.6,286046999.8,N
1618013055.4,286046999.7,N
1618013075.3,286046999.8,N
1618013095.1,286047002.8,N
1618013096.0,286047002.8,N
1618013115.8,286047002.4,N
1618013135.7,286047002.4,N
1618013155.5,286047002.3,N
1618013175.4,286047002.3,N
1618013195.2,286047002.8,N
1618013215.0,286047000.4,N
1618013215.9,286047000.4,N
1618013235.8,286047002.4,N
1618013255.6,286047002.3,N
1618013275.4,286047002.3,N
1618013295.3,286047000.0,N
1618013315.1,286046999.8,N
1618013335.9,286046999.9,N
1618013355.7,286047000.2,N
1618013375.5,286046999.9,N
1618013395.4,286046999.7,N
1618013415.2,286047002.5,N
1618013435.0,286047002.2,N
1618013436.0,286047002.2,N
1618013455.8,286047002.7,N
1618013475.6,286047002.6,N
1618013495.5,286047001.9,N
1618013515.3,286046999.7,N
1618013535.2,286047002.3,N
1618013555.9,286047002.5,N
1618013575.7,286047002.3,N
1618013595.6,286047002.7,N
1618013615.4,286047002.7,N
1618013635.2,286047002.7,N
1618013655.1,286047002.7,N
1618013656.0,286047002.7,N
1618013675.8,286047002.8,N
1618013695.7,286047002.8,N
1618013715.5,286047002.7,N
1618013735.3,286047002.8,N
1618013755.2,286047000.1,N
1618013775.0,286047000.0,N
1618013775.9,286047000.0,N
1618013795.8,286047002.7,N
1618013815.6,286047002.5,N
1618013835.4,286047002.8,N
1618013855.3,286047002.7,N
1618013875.1,286047002.3,N
1618013895.8,286047002.4,N
1618013915.7,286047002.7,N
1618013935.5,286047002.6,N
1618013955.4,286046999.7,N
1618013975.2,286047000.0,N
1618013995.0,286047002.7,N
1618013995.9,286047002.7,N
1618014015.8,286047002.8,N
1618014035.6,286047002.2,N
1618014055.4,286047002.1,N
1618014075.3,286047002.7,N
1618014095.1,286047002.4,N
1618014115.9,286047002.7,N
1618014135.7,286046999.9,N
1618014155.5,286047000.1,N
1618014175.4,286047002.8,N
1618014195.2,286047002.7,N
1618014215.1,286047000.3,N
1618014216.0,286047000.3,N
1618014235.8,286046999.8,N
1618014255.6,286047000.2,N
1618014275.5,286047002.4,N
1618014295.3,286047000.2,N
1618014315.1,286047002.4,N
1618014335.9,286047000.3,N
1618014355.7,286047002.7,N
1618014375.6,286047002.7,N
1618014395.4,286047002.7,N
1618014415.2,286047000.2,N
1618014435.1,286047000.2,N
1618014436.0,286047000.2,N
1618014455.8,286047002.5,N
1618014475.6,286047002.8,N
1618014495.5,286047002.8,N
1618014515.3,286047002.1,N
1618014535.2,286047002.2,N
1618014555.9,286047001.3,N
1618014575.7,286047002.3,N
1618014595.6,286047002.1,N
1618014615.4,286047002.5,N
1618014635.3,286047001.6,N
1618014655.1,286047002.5,N
1618014656.0,286047002.5,N
1618014675.8,286047002.6,N
1618014695.7,286047000.2,N
1618014715.5,286047000.2,N
1618014735.3,286046999.9,N
1618014755.2,286046999.9,N
1618014775.0,286046999.9,N
1618014775.9,286046999.9,N
1618014795.8,286047002.4,N
1618014815.6,286047002.7,N
1618014835.4,286047000.2,N
1618014855.3,286047002.4,N
1618014875.1,286047002.3,N
1618014895.8,286047002.2,N
1618014915.7,286047000.1,N
1618014935.5,286047000.1,N
1618014955.4,286047002.4,N
1618014975.2,286047002.3,N
1618014995.0,286047002.4,N
1618014995.9,286047002.4,N
1618015015.8,286047002.3,N
1618015035.6,286046999.9,N
1618015055.5,286046999.7,N
1618015075.3,286047002.6,N
1618015095.1,286047001.5,N
1618015115.9,286047001.7,N
1618015135.7,286047001.9,N
1618015155.5,286047002.1,N
1618015175.4,286047002.6,N
1618015195.2,286047002.2,N
1618015215.1,286047002.8,N
1618015216.0,286047002.8,N
1618015235.8,286046999.7,N
1618015255.6,286047002.6,N
1618015275.5,286047002.2,N
1618015295.3,286047001.7,N
1618015315.1,286047002.0,N
1618015335.9,286047002.2,N
1618015355.7,286047001.8,N
1618015375.6,286047001.5,N
1618015395.4,286047004.0,Y
1618015415.2,286047000.2,P
1618015435.1,286047000.4,N
1618015436.0,286047000.4,N
1618015455.8,286047000.3,N
1618015475.7,286047001.1,N
1618015495.5,286046998.4,N
1618015515.3,286046998.7,N
1618015535.2,286046998.1,N
1618015555.0,286047001.2,N
1618015555.9,286047001.2,N
1618015575.7,286047001.1,N
1618015595.6,286047001.2,N
1618015615.4,286046998.1,N
1618015635.3,286047000.0,N
1618015655.1,286046999.9,N
1618015656.0,286046999.9,N
1618015675.8,286047000.9,N
1618015695.7,286047000.8,N
1618015715.5,286046998.5,N
1618015735.3,286046998.6,N
1618015755.2,286046998.3,N
1618015775.0,286047000.7,N
1618015775.9,286047000.7,N
1618015795.8,286047000.8,N
1618015815.6,286047000.5,N
1618015835.4,286047001.1,N
1618015855.3,286046998.2,N
1618015875.1,286047001.2,N
1618015895.9,286046998.5,N
1618015915.7,286046998.3,N
1618015935.5,286046998.6,N
1618015955.4,286047000.8,N
1618015975.2,286047001.2,N
1618015995.0,286047001.2,N
1618015995.9,286047001.2,N
1618016015.8,286046998.4,N
1618016035.6,286046998.4,N
1618016055.5,286047000.9,N
1618016075.3,286046998.5,N
1618016095.1,286047000.9,N
1618016115.9,286046998.6,N
1618016135.7,286046998.3,N
1618016155.5,286046998.3,N
1618016175.4,286046998.7,N
1618016195.2,286046998.4,N
1618016215.1,286046998.4,N
1618016216.0,286046998.4,N
1618016235.8,286046998.4,N
1618016255.6,286046998.1,N
1618016275.5,286046998.4,N
1618016295.3,286046998.3,N
1618016315.1,286046998.3,N
1618016335.9,286046998.1,N
1618016355.7,286046998.6,N
1618016375.6,286046998.6,N
1618016395.4,286047001.2,N
